STARLINK-36738, 67865

Orbit data source: Space-Track

STARLINK-36738, 67865 is a payload satellite owned by SpaceX/Seattle (US) in LEO that was launched on Fri, 20 Feb 2026 UTC via an FALCON 9 launch vehicle from the Air Force Eastern Test Range (AFETR). Payload-class satellites include a variety of spacecraft equipped with specific instruments for various scientific and technological missions. These include communications satellites like Starlink; space stations such as the ISS; scientific satellites like the Hubble; Earth observation satellites from companies like Planet Labs, Umbra, and HawkEye 360; GPS; miniature CubeSats for education and research; and military/defense satellites.

Loading next visibility...
Identifier
67865, 2026-034R
Orbit
LEO
Country
Flag of USUS
Related business
Manufacturer
SpaceX/Seattle
Mission
Operational Commercial Communications
Bus & Motor
STARLINK V2MO, Unknown motor
Mass
575 kg wet, ~530 kg dry
Launch date (UTC)
2026-02-20 (4 months ago)
Launch vehicle
FALCON 9
Launch site
Air Force Eastern Test Range (AFETR)
Object type
Payload
Rocket body
Debris
Shape & HBR
Box + 2 Pan, 17.7 m
Radar Cross Section
36.964 m², Large (>1 m²)

Expand to show TLE details & history
Last TLE update: 21 hours ago

TLE from 21 hours ago
0 STARLINK-36738
1 67865U 26034R   26170.96667785  .00015379  00000-0  53006-3 0  9999
2 67865  53.1598  89.2544 0001428  94.6922 265.4242 15.30213461 19690
Epoch: 2026-06-19T23:12Z
TLE epoch observation values (Epoch: 2026-06-19T23:12:00.966Z)
Latitude
Longitude
-166.93769°
Altitude
476.153 km
Speed
7.629 km/s
True Right ascension
05h 57m 01s
True Declination
0° 00' 00"
Sunlit
Object was in daylight at epoch
Visualization orbit readout
Latitude
Unknown
Longitude
Unknown
Altitude
Unknown
Speed
Unknown
Apparent Right ascension
Unknown
Apparent Declination
Unknown
Sunlit
N/A
Visualization observer readout
Local Sidereal Time
07:15:22
Azimuth
Unknown
Elevation
Unknown
Doppler factor
Unknown
Orbital elements
Apogee altitude
476.41 km
Perigee altitude
474.453 km
Semi-major axis
6,853.568 km
Eccentricity
0.00014
Inclination
53.1598°
RAAN
89.2544°
Arg. of periapsis
94.6922°
True anomaly
265.40789°
Mean anomaly
265.4242°
Eccentric anomaly
265.41604°
Mean motion
3.82532 °/min
Orbital period
94.11 mins
BSTAR
0.00053006
Loading maneuver chart data...
Computing Atmospheric mass density...
Loading historical data...
Loading historical data...
Loading historical data...
Loading historical data...
Loading historical data...
Loading historical data...
Loading historical data...

Documentation

Showing up to 5 results
|